When you browse on this site, cookies collect data to enhance your experience and personalize the content and advertising you see.
Visit our Privacy Policy to learn more. By continuing to use the site, you agree to this use of cookies and data.

Météo par heure à Dover

Ce jour, 2 Juillet, Jeudi

Heure Température Précipitation Vent Pression Humidité
00:00 +23°C° 0 mm 1 m/s 757 mmHg 87%
01:00 +21°C° 0 mm 2 m/s 757 mmHg 87%
02:00 +21°C° 0 mm 2 m/s 756 mmHg 88%
03:00 +21°C° 0 mm 2 m/s 756 mmHg 88%
04:00 +20°C° 0 mm 2 m/s 756 mmHg 88%
05:00 +21°C° 0 mm 3 m/s 756 mmHg 87%
06:00 +22°C° 0 mm 3 m/s 757 mmHg 85%
07:00 +24°C° 0 mm 3 m/s 757 mmHg 83%
08:00 +25°C° 0 mm 3 m/s 757 mmHg 77%
09:00 +27°C° 0 mm 3 m/s 757 mmHg 71%
10:00 +29°C° 0 mm 3 m/s 757 mmHg 65%
11:00 +29°C° 0 mm 3 m/s 757 mmHg 61%
12:00 +30°C° 0 mm 3 m/s 757 mmHg 57%
13:00 +31°C° 0 mm 3 m/s 757 mmHg 53%
14:00 +31°C° 0 mm 3 m/s 757 mmHg 54%
15:00 +31°C° 0 mm 3 m/s 756 mmHg 56%
16:00 +32°C° 0 mm 4 m/s 756 mmHg 58%
17:00 +30°C° 0 mm 4 m/s 756 mmHg 63%
18:00 +29°C° 0 mm 3 m/s 756 mmHg 69%
19:00 +28°C° 0 mm 3 m/s 756 mmHg 75%
20:00 +28°C° 0 mm 3 m/s 756 mmHg 74%
21:00 +27°C° 0 mm 3 m/s 756 mmHg 72%
22:00 +27°C° 0 mm 3 m/s 757 mmHg 71%
23:00 +26°C° 0 mm 3 m/s 757 mmHg 73%

Demain, 3 Juillet, Vendredi

Heure Température Précipitation Vent Pression Humidité
00:00 +25°C° 0 mm 3 m/s 757 mmHg 74%
01:00 +25°C° 0 mm 3 m/s 756 mmHg 76%
02:00 +25°C° 0 mm 3 m/s 756 mmHg 75%
03:00 +24°C° 0 mm 3 m/s 756 mmHg 75%
04:00 +24°C° 0 mm 3 m/s 756 mmHg 74%
05:00 +25°C° 0 mm 3 m/s 757 mmHg 74%
06:00 +25°C° 0 mm 3 m/s 757 mmHg 74%
07:00 +26°C° 0 mm 4 m/s 757 mmHg 73%
08:00 +28°C° 0 mm 4 m/s 757 mmHg 70%
09:00 +29°C° 0 mm 4 m/s 757 mmHg 67%
10:00 +32°C° 0 mm 4 m/s 757 mmHg 64%
11:00 +33°C° 0 mm 4 m/s 757 mmHg 60%
12:00 +34°C° 0 mm 4 m/s 757 mmHg 56%
13:00 +35°C° 0 mm 4 m/s 757 mmHg 52%
14:00 +34°C° 0 mm 4 m/s 756 mmHg 54%
15:00 +34°C° 0 mm 4 m/s 756 mmHg 56%
16:00 +34°C° 0 mm 4 m/s 756 mmHg 57%
17:00 +33°C° 0 mm 4 m/s 756 mmHg 63%
18:00 +31°C° 0 mm 3 m/s 756 mmHg 68%
19:00 +30°C° 0 mm 3 m/s 756 mmHg 74%
20:00 +29°C° 0 mm 3 m/s 756 mmHg 73%
21:00 +28°C° 0 mm 3 m/s 756 mmHg 72%
22:00 +27°C° 0 mm 3 m/s 756 mmHg 72%
23:00 +27°C° 0 mm 2 m/s 756 mmHg 75%

Après-demain, 4 Juillet, Samedi

Heure Température Précipitation Vent Pression Humidité
00:00 +26°C° 0 mm 1 m/s 756 mmHg 79%
01:00 +25°C° 0 mm 1 m/s 756 mmHg 83%
02:00 +25°C° 0 mm 1 m/s 756 mmHg 86%
03:00 +24°C° 0 mm 2 m/s 756 mmHg 89%
04:00 +24°C° 0 mm 3 m/s 756 mmHg 92%
05:00 +24°C° 0 mm 3 m/s 757 mmHg 91%
06:00 +25°C° 0 mm 4 m/s 757 mmHg 90%
07:00 +25°C° 0 mm 4 m/s 757 mmHg 89%
08:00 +26°C° 0 mm 4 m/s 757 mmHg 83%
09:00 +27°C° 0 mm 3 m/s 758 mmHg 78%
10:00 +29°C° 0 mm 2 m/s 758 mmHg 72%
11:00 +29°C° 0.1 mm 2 m/s 758 mmHg 71%
12:00 +30°C° 0.1 mm 2 m/s 758 mmHg 70%
13:00 +30°C° 0.1 mm 2 m/s 758 mmHg 68%
14:00 +29°C° 1.1 mm 2 m/s 758 mmHg 71%
15:00 +29°C° 1.1 mm 3 m/s 758 mmHg 74%
16:00 +28°C° 1.1 mm 4 m/s 757 mmHg 77%
17:00 +27°C° 0.3 mm 3 m/s 758 mmHg 80%
18:00 +26°C° 0.3 mm 3 m/s 758 mmHg 83%
19:00 +25°C° 0.3 mm 3 m/s 758 mmHg 86%
20:00 +25°C° 0 mm 3 m/s 758 mmHg 88%
21:00 +24°C° 0 mm 2 m/s 758 mmHg 91%
22:00 +23°C° 0 mm 2 m/s 759 mmHg 93%
23:00 +23°C° 0 mm 2 m/s 759 mmHg 93%

5 Juillet, Dimanche

Heure Température Précipitation Vent Pression Humidité
00:00 +23°C° 0 mm 2 m/s 759 mmHg 94%
01:00 +22°C° 0 mm 1 m/s 759 mmHg 94%
02:00 +22°C° 0 mm 1 m/s 759 mmHg 94%
03:00 +22°C° 0 mm 1 m/s 759 mmHg 94%
04:00 +22°C° 0 mm 1 m/s 759 mmHg 94%
05:00 +23°C° 0 mm 1 m/s 759 mmHg 92%
06:00 +24°C° 0 mm 1 m/s 759 mmHg 89%
07:00 +24°C° 0 mm 1 m/s 759 mmHg 86%
08:00 +26°C° 0 mm 1 m/s 759 mmHg 80%
09:00 +27°C° 0 mm 1 m/s 760 mmHg 74%
10:00 +28°C° 0 mm 1 m/s 760 mmHg 69%
11:00 +29°C° 0 mm 1 m/s 759 mmHg 66%
12:00 +30°C° 0 mm 2 m/s 759 mmHg 63%
13:00 +30°C° 0 mm 2 m/s 759 mmHg 61%
14:00 +31°C° 0.1 mm 2 m/s 759 mmHg 61%
15:00 +31°C° 0.1 mm 2 m/s 758 mmHg 61%
16:00 +31°C° 0.1 mm 2 m/s 758 mmHg 62%
17:00 +29°C° 0 mm 3 m/s 758 mmHg 67%
18:00 +28°C° 0 mm 3 m/s 758 mmHg 73%
19:00 +27°C° 0 mm 3 m/s 758 mmHg 78%
20:00 +26°C° 0 mm 3 m/s 758 mmHg 81%
21:00 +25°C° 0 mm 3 m/s 759 mmHg 83%
22:00 +25°C° 0 mm 3 m/s 759 mmHg 86%
23:00 +24°C° 0 mm 3 m/s 759 mmHg 85%

6 Juillet, Lundi

Heure Température Précipitation Vent Pression Humidité
00:00 +24°C° 0 mm 3 m/s 759 mmHg 85%
01:00 +22°C° 0 mm 3 m/s 759 mmHg 85%
02:00 +22°C° 0 mm 3 m/s 759 mmHg 86%
03:00 +23°C° 0 mm 2 m/s 759 mmHg 88%
04:00 +23°C° 0 mm 2 m/s 759 mmHg 89%
05:00 +24°C° 0 mm 2 m/s 759 mmHg 86%
06:00 +25°C° 0 mm 2 m/s 759 mmHg 84%
07:00 +26°C° 0 mm 1 m/s 760 mmHg 82%
08:00 +28°C° 0 mm 1 m/s 760 mmHg 75%
09:00 +29°C° 0 mm 1 m/s 760 mmHg 68%
10:00 +29°C° 0 mm 0 m/s 760 mmHg 62%
11:00 +32°C° 0 mm 1 m/s 760 mmHg 59%
12:00 +32°C° 0 mm 1 m/s 760 mmHg 57%
13:00 +32°C° 0 mm 2 m/s 760 mmHg 55%
14:00 +33°C° 0.2 mm 3 m/s 760 mmHg 58%
15:00 +33°C° 0.2 mm 3 m/s 760 mmHg 61%
16:00 +32°C° 0.2 mm 4 m/s 759 mmHg 64%
17:00 +30°C° 0.3 mm 4 m/s 759 mmHg 69%
18:00 +29°C° 0.3 mm 4 m/s 760 mmHg 74%
19:00 +27°C° 0.3 mm 4 m/s 760 mmHg 79%
20:00 +26°C° 0.1 mm 3 m/s 760 mmHg 80%
21:00 +25°C° 0.1 mm 3 m/s 760 mmHg 81%
22:00 +24°C° 0.1 mm 3 m/s 761 mmHg 82%
23:00 +24°C° 0 mm 2 m/s 761 mmHg 84%

7 Juillet, Mardi

Heure Température Précipitation Vent Pression Humidité
00:00 +23°C° 0 mm 2 m/s 761 mmHg 86%
01:00 +23°C° 0 mm 2 m/s 760 mmHg 88%
02:00 +23°C° 0 mm 2 m/s 760 mmHg 89%
03:00 +23°C° 0 mm 2 m/s 761 mmHg 90%
04:00 +23°C° 0 mm 1 m/s 761 mmHg 91%
05:00 +24°C° 0 mm 2 m/s 761 mmHg 89%
06:00 +25°C° 0 mm 2 m/s 761 mmHg 87%
07:00 +26°C° 0 mm 2 m/s 761 mmHg 84%
08:00 +27°C° 0 mm 3 m/s 761 mmHg 80%
09:00 +28°C° 0 mm 3 m/s 761 mmHg 75%
10:00 +29°C° 0 mm 4 m/s 761 mmHg 70%
11:00 +29°C° 0.2 mm 4 m/s 761 mmHg 69%
12:00 +30°C° 0.2 mm 5 m/s 761 mmHg 68%
13:00 +30°C° 0.2 mm 5 m/s 761 mmHg 68%
14:00 +30°C° 0.1 mm 5 m/s 760 mmHg 68%
15:00 +30°C° 0.1 mm 5 m/s 760 mmHg 67%
16:00 +29°C° 0.1 mm 5 m/s 760 mmHg 67%
17:00 +29°C° 0 mm 4 m/s 760 mmHg 72%
18:00 +28°C° 0 mm 4 m/s 760 mmHg 77%
19:00 +27°C° 0 mm 4 m/s 760 mmHg 81%
20:00 +26°C° 0 mm 3 m/s 760 mmHg 84%
21:00 +25°C° 0 mm 3 m/s 760 mmHg 88%
22:00 +25°C° 0 mm 3 m/s 761 mmHg 91%
23:00 +24°C° 0 mm 3 m/s 761 mmHg 92%
Voir plus